Regional Weather Roundup
Issued by NWS

Home | Current Version | Previous Version | Text Only | Print | Product List | Glossary Off
Versions: 1 2 3 4 5 6 7 8 9 10 11 12 13 14 15 16 17 18 19 20 21 22 23 24 25 26 27 28 29 30 31 32 33 34 35 36 37 38 39 40 41 42 43 44 45 46 47 48 49 50

000
ASUS45 KABQ 312001
RWRNM
NEW MEXICO REGIONAL WEATHER ROUNDUP
NATIONAL WEATHER SERVICE ALBUQUERQUE NM
200 PM MDT TUE MAY 31 2016

NOTE: "FAIR" MEANS FEW OR NO CLOUDS BELOW 12,000 FEET AGL WITH NO
       SIGNIFICANT WEATHER OR OBSTRUCTIONS TO VISION.

      THIS PRODUCT IS RELEASED AS TWO VERSIONS.  ONE VERSION NEAR
      THE TOP OF THE HOUR CONTAINING PRELIMINARY DATA FROM ALBUQUERQUE
      AND OTHER STATIONS.  A FINAL VERSION WITH ADDITIONAL DATA IS
      ISSUED ABOUT 10 MINUTES AFTER THE HOUR.

NMZ501-503-504-510>518-312100-
NORTHWEST PLATEAU/NORTHCENTRAL MOUNTAINS

CITY           SKY/WX    TMP DP  RH WIND       PRES   REMARKS
FARMINGTON     FAIR      81  16   9 MISG      29.96F
SANTA FE       LGT RAIN  72  37  28 E21       30.04R
TAOS           PTSUNNY   64  39  39 SE25      30.10F

$$
NMZ402-403-502-505>509-312100-
WESTCENTRAL MOUNTAINS/SOUTHWEST MOUNTAINS

CITY           SKY/WX    TMP DP  RH WIND       PRES   REMARKS
GALLUP         FAIR      76  22  13 VRB7      30.04F
GRANTS         FAIR      78  25  14 NE18G25   30.05F
SILVER CITY      N/A     81  27  13 S13G23    30.00F

$$
NMZ407-409-411-412-312100-
SOUTHERN DESERTS

CITY           SKY/WX    TMP DP  RH WIND       PRES   REMARKS
LORDSBURG      FAIR      82  36  18 W8        29.91F
DEMING         FAIR      81  36  19 SW5       29.92F
HOLLOMAN AFB   FAIR      83  44  25 S15       29.89F
ALAMOGORDO     FAIR      81  45  28 S6        29.92F
T OR C         LGT RAIN  77  46  33 SE7       29.94F

$$
NMZ519>523-312100-
CENTRAL VALLEYS/CENTRAL HIGHLANDS

CITY           SKY/WX    TMP DP  RH WIND       PRES   REMARKS
ALBUQUERQUE    PTSUNNY   74  40  29 SE20      29.99S
DOUBLE EAGLE   PTSUNNY   79  37  22 S9        30.02F
CLINES CORNERS FAIR      70  37  29 SE12G17   30.08F
BELEN          FAIR      77  33  20 NE22G31   29.97S
SOCORRO        NOT AVBL

$$
NMZ524>526-539-540-312100-
SOUTHCENTRAL MOUNTAINS

CITY           SKY/WX    TMP DP  RH WIND       PRES   REMARKS
RUIDOSO        NOT AVBL

$$
NMZ527>531-312100-
NORTHEAST HIGHLANDS/NORTHEAST PLAINS

CITY           SKY/WX    TMP DP  RH WIND       PRES   REMARKS
LAS VEGAS      TSTM      58  49  72 SE7       30.10S
RATON          FAIR      68  44  42 E13       30.08F
CLAYTON        PTSUNNY   70  52  52 S8        30.05F

$$
NMZ532>537-312100-
EASTCENTRAL PLAINS

CITY           SKY/WX    TMP DP  RH WIND       PRES   REMARKS
TUCUMCARI      FAIR      81  50  33 E16       29.96F
CANNON AFB     NOT AVBL
CLOVIS AIRPORT FAIR      73  54  49 SE14      29.99F

$$
NMZ028-029-538-312100-
SOUTHEAST PLAINS

CITY           SKY/WX    TMP DP  RH WIND       PRES   REMARKS
ROSWELL        FAIR      80  46  30 N8        29.91F
ARTESIA        FAIR      82  50  32 VRB3      29.88F
CARLSBAD       FAIR      87  50  27 SE12G18   29.85F
HOBBS          MOSUNNY   82  48  30 S6        29.92F


$$




USA.gov is the U.S. government's official web portal to all federal, state and local government web resources and services.